JCSAT-4A (25630 NORAD) Tracking and Keplerian Element Data

This shows tracking and keplerian element data for the satellite.

Feedback or suggestion? Click here.




ElementValue
Catalog25630
NameJCSAT-4A
Epoch Orbit77
Epoch Day66.82161378
Epoch Year2022
RAAN69.5471
Inclination6.0106
Eccentricity0.0026593
Argument of Perigee358.7628
Mean Anonmoly28.4728
Mean Motion0.98813248
Decay Rate-2.01E-06
L11 25630U 99006A 22066.82161378 -.00000201 00000+0 00000+0 0 9994
L22 25630 6.0106 69.5471 0026593 358.7628 28.4728 0.98813248 775



Live tracking and technical data element details for JCSAT-4A (NORAD 25630). JCSAT-4A can be tracked NOW for your location showing map with azimuth and elevation plus other details from your city location.







IsCatalogInMostPopularTable: catalog: 25630, numindb: 389
Update: records affected: 1



GetName: 25630 JCSAT-4A

Hit Count: updated at: Sat, 14 Mar 2026 02:41:26 GMT